Cloud_Cover
0 0 0 0 0 0 0 0 0 0 0 0 0 0 2 0 2 0 4 4 0 0 0 0 0 0 0 64 35 100 10 29 17 36 0 0 0 0 0 1 12 3 0 0 4
0 0 0 0 0 0 0 0 0 0 0 0 0 0 0 2 2 1 1 0 0 0 0 0 0 0 2 37 20 98 6 0 29 62 3 0 0 5 100 0 0 0 0 0 1
12 2 0 0 0 0 0 0 0 0 0 9 6 0 7 14 0 0 0 0 0 0 0 0 2 2 36 52 4 13 15 0 0 0 3 25 20 5 0 0 0 4 1 0 0
47 10 0 0 0 0 0 0 0 0 0 18 22 0 0 0 0 0 0 0 0 0 0 0 4 10 6 48 5 96 5 5 0 0 0 2 37 66 13 0 0 0 0 0 0
4 0 0 0 0 0 0 0 0 0 0 16 26 14 1 0 0 0 0 0 0 0 0 0 1 3 5 66 80 97 87 13 27 1 0 7 42 50 100 98 1 0 0 0 0
3 0 0 0 0 0 0 0 0 0 0 2 29 51 0 0 0 0 0 0 0 0 0 0 3 5 5 92 80 48 54 43 22 40 4 53 52 100 100 72 96 0 0 0 0
0 0 0 0 0 0 0 0 0 0 0 0 36 0 0 0 0 0 0 0 0 0 0 0 4 0 5 60 100 84 1 97 91 100 63 12 100 96 92 82 99 0 0 0 0
0 0 0 0 0 0 0 2 0 0 0 0 0 0 0 0 0 0 0 0 0 0 0 0 0 0 1 4 5 15 12 99 98 26 3 6 98 59 24 5 2 0 0 0 0
0 0 0 0 0 0 7 0 0 0 0 0 0 0 0 0 0 0 0 0 0 0 0 0 0 0 0 0 1 37 74 63 95 100 100 4 29 100 60 99 0 0 0 0 0
0 0 0 0 0 0 11 0 0 0 0 0 0 0 0 0 0 0 0 0 0 0 0 0 0 0 0 0 1 51 81 100 100 100 98 10 8 23 22 32 0 0 0 0 0
0 0 0 0 0 1 13 0 0 0 0 0 0 0 0 0 0 0 0 0 0 0 0 0 0 0 0 0 5 94 25 100 97 100 100 18 1 0 1 2 100 100 100 80 0
0 0 0 0 0 1 78 0 0 0 0 0 0 0 0 0 0 0 0 0 0 0 0 0 0 0 0 0 4 5 100 10 44 73 33 100 20 0 0 43 79 100 100 100 6
0 0 0 0 2 0 0 0 0 0 0 0 0 0 0 0 0 0 0 0 0 0 0 0 0 0 0 0 0 1 5 81 100 100 76 46 60 80 21 97 31 90 100 100 100
0 0 0 0 0 0 0 0 0 0 0 0 0 0 0 0 0 0 0 0 0 0 0 0 0 0 0 0 0 0 0 6 25 36 0 1 40 11 17 100 100 94 100 100 96
0 0 0 0 0 0 0 0 0 0 0 0 0 0 0 0 0 0 0 0 0 0 0 0 0 0 0 0 0 0 3 5 5 0 1 2 54 30 5 100 100 79 82 100 100
0 0 0 0 1 0 0 0 0 0 0 0 0 0 0 0 0 0 0 0 0 0 0 0 0 0 0 0 0 0 0 0 0 0 0 0 2 9 14 69 89 98 100 100 100
0 0 27 0 0 0 0 0 0 0 0 0 0 0 0 0 0 0 0 0 0 0 0 0 0 0 0 0 0 0 0 0 0 0 0 3 100 91 92 14 96 99 100 100 70
0 2 0 0 0 0 0 0 0 0 4 0 0 0 0 0 0 0 0 0 0 0 0 0 0 0 0 0 0 0 0 0 0 0 0 100 94 94 61 100 99 66 98 100 100
0 0 0 0 0 0 0 0 0 0 4 2 0 0 0 0 0 0 0 0 0 0 0 0 0 0 0 0 0 0 0 0 0 0 0 62 98 93 75 90 45 1 94 100 100
0 0 0 0 0 0 0 0 0 0 0 0 0 2 0 0 0 0 0 0 0 0 0 0 0 0 0 0 0 0 0 0 0 0 0 5 20 75 60 92 92 61 97 100 100
0 0 0 0 0 0 0 0 0 0 0 0 0 2 4 91 3 0 0 0 0 0 0 0 0 0 0 0 0 0 0 0 0 0 0 0 3 0 65 72 100 100 100 100 100
0 0 0 0 0 0 0 0 0 0 0 0 0 0 5 87 44 0 2 2 0 0 0 0 0 0 0 0 0 0 0 0 0 0 0 5 73 0 16 100 100 6 72 76 98
0 0 0 0 0 0 0 0 0 0 0 0 0 0 4 35 68 1 3 45 1 0 0 0 0 0 19 12 5 0 0 0 0 0 0 12 53 46 27 18 32 11 0 57 86
0 0 0 0 0 0 0 0 1 0 0 0 0 0 0 2 0 54 81 65 5 0 0 0 0 0 4 0 46 3 4 0 0 0 2 64 5 88 85 33 28 17 28 100 56
0 6 0 0 0 1 0 0 5 1 0 0 0 0 0 0 0 3 90 51 5 0 0 0 0 0 0 1 6 28 6 15 0 0 0 55 20 58 0 1 6 6 41 67 88
0 0 0 0 4 0 0 0 0 0 6 0 0 0 0 0 0 0 2 22 100 6 0 0 0 0 0 0 5 5 5 92 16 0 0 0 95 100 0 4 5 3 0 7 28
0 0 0 0 0 0 2 4 0 5 12 5 1 0 0 2 0 3 4 0 4 39 16 5 1 1 0 1 6 0 33 39 88 6 0 0 4 100 86 1 1 3 8 38 56